Header for Extended Forecast Station List Page

Search by: ID | Name | Date | Parm | Value | Avg | % Avg
Sort by: ID | Name | Date | Parm | Value | Avg | % Avg

Enter search or view all records.

Click on id for station plot
#IDNameDateParmValueAvg% Avg
0BULO3BULLY CREEK-BULLY CREEK DAM02-12-2018INFLOW (KAF)7983
1MYKO3MCKAY CREEK-NEAR PILOT ROCK02-12-2018DISCHARGE (KAF)4537120
2RIDI1WILLOW CREEK-RIRIE DAM02-12-2018INFLOW (KAF)274265
3BERO3MALHEUR-AGENCY VALLEY DAM02-12-2018INFLOW (KAF)305258
4LWRI1LITTLE WOOD-LITTLE WOOD DAM02-12-2018INFLOW (KAF)436468
5VALO3MALHEUR-NEAR VALE02-12-2018DISCHARGE (KAF)466473
6WRMO3MALHEUR-WARM SPRINGS DAM02-12-2018INFLOW (KAF)437458
7DLGM8CLARK FORK-AT DEER LODGE02-12-2018DISCHARGE (KAF)707890
8HWRI1BIG LOST-AT HOWELL RANCH NEAR CHILLY02-12-2018DISCHARGE (KAF)10084120
9MACI1BIG LOST-MACKAY RESERVOIR NEAR MACKAY02-12-2018INFLOW (KAF)8784104
10GIBO3UMATILLA-NEAR GIBBON02-12-2018DISCHARGE (KAF)9184108
11BUDW1BUMPING-BUMPING LAKE DAM02-12-2018INFLOW (KAF)9786113
12DEDI1DEADWOOD-NEAR LOWMAN02-12-2018INFLOW (KAF)10195106
13KADW1KACHESS-KACHESS DAM02-12-2018INFLOW (KAF)10196105
14EASW1YAKIMA-AT EASTON02-12-2018DISCHARGE (KAF)122100122
15KEDW1YAKIMA-KEECHELUS LAKE02-12-2018INFLOW (KAF)117101116
16PIHI1PORTNEUF-AT POCATELLO02-12-2018DISCHARGE (KAF)7610275
17ARDW1ENTIAT-NEAR ARDENVOIR02-12-2018DISCHARGE (KAF)144122119
18TNAW1TEANAWAY-BELOW FORKS02-12-2018DISCHARGE (KAF)156131119
19HALI1BIG WOOD-AT HAILEY02-12-2018DISCHARGE (KAF)167144116
20RILW1TIETON-RIMROCK LAKE NEAR RIMROCK02-12-2018INFLOW (KAF)165146113
21SATI1ST MARIES-NEAR SANTA02-12-2018DISCHARGE (KAF)173150115
22UMAO3UMATILLA-NEAR UMATILLA02-12-2018DISCHARGE (KAF)187156120
23HOTI1BRUNEAU-NEAR HOT SPRINGS02-12-2018DISCHARGE (KAF)10315766
24RCCM8ROCK CREEK-NEAR CLINTON02-12-2018DISCHARGE (KAF)239168142
25IPDI1HENRYS FORK-ISLAND PARK DAM02-12-2018INFLOW (KAF)198171116
26PDTO3UMATILLA-AT PENDLETON02-12-2018DISCHARGE (KAF)213192111
27MAGI1BIG WOOD-MAGIC DAM02-12-2018INFLOW (KAF)15319479
28TCHW1WALLA WALLA-NEAR TOUCHET02-12-2018DISCHARGE (KAF)244200122
29STRM8ST. REGIS-NEAR ST. REGIS02-12-2018DISCHARGE (KAF)278225124
30TEAI1TETON-NEAR ST. ANTHONY02-12-2018DISCHARGE (KAF)264227116
31CHEI1FALL RIVER-NEAR CHESTER02-12-2018DISCHARGE (KAF)313263119
32HODO3HOOD-NEAR TUCKER BRIDGE02-12-2018DISCHARGE (KAF)26628095
33CLUW1CLE ELUM-CLE ELUM LAKE02-12-2018INFLOW (KAF)310293106
34CLFW1NACHES-NEAR CLIFFDEL02-12-2018DISCHARGE (KAF)351301117
35BIGI1BOISE-AT GLENWOOD BRIDGE02-12-2018DISCHARGE (KAF)31033393
36UNDW1WHITE SALMON-NEAR UNDERWOOD02-12-2018DISCHARGE (KAF)357357100
37OWYO3OWYHEE-OWYHEE DAM02-12-2018INFLOW (KAF)19036252
38NACW1NACHES-NEAR NACHES02-12-2018DISCHARGE (KAF)543380143
39ARAI1SF BOISE-ANDERSON RANCH DAM02-12-2018INFLOW (KAF)35240986
40PARI1BOISE-NEAR PARMA02-12-2018DISCHARGE (KAF)35441086
41CSDI1NF PAYETTE-CASCADE DAM02-12-2018INFLOW (KAF)38641094
42WSRI1WEISER-NEAR WEISER02-12-2018DISCHARGE (KAF)32643275
43JLKW4SNAKE-JACKSON LAKE AT DAM02-12-2018INFLOW (KAF)634457139
44PITW1KLICKITAT-NEAR PITT02-12-2018DISCHARGE (KAF)48553092
45PATW1METHOW-NEAR PATEROS02-12-2018DISCHARGE (KAF)685568121
46BONM8BLACKFOOT-NEAR BONNER02-12-2018DISCHARGE (KAF)992570174
47ANTI1HENRYS FORK-AT ST. ANTHONY02-12-2018DISCHARGE (KAF)655577113
48UMTW1YAKIMA-AT UMTANUM02-12-2018DISCHARGE (KAF)682606113
49MONO3NF JOHN DAY-AT MONUMENT02-12-2018DISCHARGE (KAF)50962082
50CHDW1CHELAN-LAKE CHELAN DAM02-12-2018INFLOW (KAF)693629110
51PARW1YAKIMA-NEAR PARKER02-12-2018DISCHARGE (KAF)779650120
52PRTI1PRIEST-NEAR PRIEST RIVER02-12-2018DISCHARGE (KAF)756659115
53REXI1HENRYS FORK-AT REXBURG02-12-2018DISCHARGE (KAF)745670111
54MILI1SNAKE-AT MILNER02-12-2018DISCHARGE (KAF)990672147
55BITM8BITTERROOT-NEAR MISSOULA02-12-2018DISCHARGE (KAF)1053838126
56JKSW4SNAKE-NEAR JACKSON02-12-2018DISCHARGE (KAF)1171838140
57SERO3JOHN DAY-AT SERVICE CK02-12-2018DISCHARGE (KAF)66289774
58PESW1WENATCHEE-AT PESHASTIN02-12-2018DISCHARGE (KAF)1111984113
59WGCM8MF FLATHEAD-NEAR WEST GLACIER02-12-2018DISCHARGE (KAF)12591005125
60KIOW1YAKIMA-AT KIONA02-12-2018DISCHARGE (KAF)10271024100
61TONW1OKANOGAN-NEAR TONASKET02-12-2018DISCHARGE (KAF)11721033113
62FCFM8NF FLATHEAD-NEAR COLUMBIA FALLS02-12-2018DISCHARGE (KAF)13161041126
63EMMI1PAYETTE-NEAR EMMETT02-12-2018DISCHARGE (KAF)967104193
64ABOM8CLARK FORK-ABOVE MISSOULA02-12-2018DISCHARGE (KAF)15821047151
65ALPW4SNAKE-NEAR ALPINE02-12-2018DISCHARGE (KAF)14971114134
66TRYO3GRANDE RONDE-TROY02-12-2018DISCHARGE (KAF)11891188100
67LAUW1KETTLE-AT LAURIER02-12-2018DISCHARGE (KAF)1308132499
68HHWM8SF FLATHEAD-HUNGRY HORSE DAM02-12-2018INFLOW (KAF)17461366128
69BFTI1SNAKE-NEAR BLACKFOOT02-12-2018DISCHARGE (KAF)24811539161
70SNAI1SNAKE-AT BLACKFOOT02-12-2018DISCHARGE (KAF)24981548161
71MODO3DESCHUTES-AT MOODY NR BIGGS02-12-2018DISCHARGE (KAF)1472155195
72HEII1SNAKE-NEAR HEISE02-12-2018DISCHARGE (KAF)27671725160
73PLDI1SF SNAKE-PALISADES DAM02-12-2018INFLOW (KAF)22071748126
74SIFI1SNAKE-AB EAGLE ROCK NR IDAHO FALLS02-12-2018DISCHARGE (KAF)28691773162
75SHYI1SNAKE-NEAR SHELLEY02-12-2018DISCHARGE (KAF)27651784155
76BELM8CLARK FORK-BELOW MISSOULA02-12-2018DISCHARGE (KAF)26351904138
77AFRI1SNAKE-AMERICAN FALLS RESERVOIR02-12-2018INFLOW (KAF)30582220138
78DWRI1NF CLEARWATER-DWORSHAK DAM02-12-2018INFLOW (KAF)29382439120
79SRGM8CLARK FORK-AT ST REGIS02-12-2018DISCHARGE (KAF)33822608130
80SWAI1SNAKE-BELOW SWAN FALLS02-12-2018DISCHARGE (KAF)28052694104
81COEI1COEUR D ALENE-COEUR D ALENE LAKE02-12-2018INFLOW (KAF)31812774115
82CFMM8FLATHEAD-AT COLUMBIA FALLS02-12-2018DISCHARGE (KAF)38192938130
83LYDM8KOOTENAI-LIBBY DAM02-12-2018INFLOW (KAF)33313205104
84LLKW1SPOKANE-AT LONGLAKE02-12-2018INFLOW (KAF)35663327107
85LEOI1KOOTENAI-AT LEONIA02-12-2018DISCHARGE (KAF)41283378122
86KERM8FLATHEAD-KERR DAM02-12-2018INFLOW (KAF)45013733121
87ORFI1CLEARWATER-AT OROFINO02-12-2018DISCHARGE (KAF)44633807117
88WHBI1SALMON-AT WHITEBIRD02-12-2018DISCHARGE (KAF)43123917110
89WEII1SNAKE-AT WEISER02-12-2018DISCHARGE (KAF)4752528290
90BRNI1SNAKE-BROWNLEE DAM02-12-2018INFLOW (KAF)5181570791
91SPDI1CLEARWATER-AT SPALDING02-12-2018DISCHARGE (KAF)69516013116
92NOXM8CLARK FORK-NOXON RAPIDS DAM02-12-2018INFLOW (KAF)77716928112
93CABI1CLARK FORK-CABINET GORGE DAM02-12-2018INFLOW (KAF)86027268118
94ALFW1PEND OREILLE-ALBENI FALLS DAM02-12-2018INFLOW (KAF)99978798114
95ANAW1SNAKE-NEAR ANATONE02-12-2018DISCHARGE (KAF)104301173289
96LGDW1SNAKE-LOWER GRANITE DAM02-12-2018INFLOW (KAF)173801776298
97LGSW1SNAKE-LITTLE GOOSE DAM02-12-2018INFLOW (KAF)173801779298
98IHDW1SNAKE-ICE HARBOR DAM02-12-2018INFLOW (KAF)177521788199
99LMNW1SNAKE-LOWER MONUMENTAL DAM02-12-2018INFLOW (KAF)177521803198
100CHJW1COLUMBIA-CHIEF JOSEPH DAM02-12-2018INFLOW (KAF)3019527019112
101GCDW1COLUMBIA-GRAND COULEE DAM02-12-2018INFLOW (KAF)2991328033107
102WELW1COLUMBIA-WELLS DAM02-12-2018INFLOW (KAF)3202428669112
103RRHW1COLUMBIA-ROCKY REACH DAM02-12-2018INFLOW (KAF)3252229102112
104WANW1COLUMBIA-WANAPUM DAM02-12-2018INFLOW (KAF)3370029913113
105PRWW1COLUMBIA-PRIEST RAPIDS DAM02-12-2018INFLOW (KAF)3369330412111
106MCDW1COLUMBIA-MCNARY DAM02-12-2018INFLOW (KAF)5256050349104
107TDAO3COLUMBIA-THE DALLES DAM02-12-2018INFLOW (KAF)5513252062106
108JDAO3COLUMBIA-JOHN DAY DAM02-12-2018INFLOW (KAF)5467252950103
109BONO3COLUMBIA-BONNEVILLE DAM02-12-2018INFLOW (KAF)5622654527103
110BFEI1KOOTENAI-AT BONNERS FERRY02-12-2018STAGE (FT)MMM
111DRMM8CLARK FORK-NR DRUMMOND02-12-2018DISCHARGE (KAF)265MM
112HOPI1PEND OREILLE-PEND OREILLE LAKE NR HOPE02-12-2018LAKE ELEVATION (FT)MMM
113SPOW1SPOKANE-AT SPOKANE02-12-2018DISCHARGE (KAF)3229MM
114SJMI1ST JOE-AT ST MARIES02-12-2018STAGE (FT)MMM
115CIBW1COLUMBIA-AT INTL BOUNDARY02-12-2018DISCHARGE (KAF)24923MM
116LUCI1BOISE-LUCKY PEAK DAM02-12-2018INFLOW (KAF)841MM